Regional Weather Roundup
Issued by NWS

Home | Current Version | Previous Version | Graphics & Text | Print | Product List | Glossary On
Versions: 1 2 3 4 5 6 7 8 9 10 11 12 13 14 15 16 17 18 19 20 21 22 23 24 25 26 27 28 29 30 31 32 33 34 35 36 37 38 39 40 41 42 43 44 45 46 47 48 49 50
000
ASUS44 KMEG 230910
RWRTN
TENNESSEE HOURLY STATE WEATHER ROUNDUP
NATIONAL WEATHER SERVICE MEMPHIS TN
300 AM CST TUE JAN 23 2018

TNZ002-004-019-021-049-052-054-088>092-231000-
WEST TENNESSEE

CITY           SKY/WX    TMP DP  RH WIND       PRES   REMARKS
MEMPHIS INTL   MOCLDY    44  30  57 W10       29.91R
NWS MEMPHIS      N/A     45 N/A N/A MISG        N/A
JACKSON        CLOUDY    45  31  58 W14       29.88R
DYERSBURG      FAIR      42  30  62 W13G20    29.89R
SOMERVILLE     CLOUDY    45  30  57 W9G16     29.88R
COVINGTON      CLOUDY    45  30  57 W14G21    29.90R
UNION CITY     PTCLDY    41  28  60 W13       29.85R
BOLIVAR        MOCLDY    43  28  56 SW9       29.89R
PARIS          MOCLDY    43  30  61 W13G21    29.83R
HUNTINGDON     CLOUDY    45  32  61 SW9       29.84R
LEXINGTON      CLOUDY    45  30  57 SW12G18   29.87R
SELMER         PTCLDY    41  28  60 SW6       29.89R
SAVANNAH       PTCLDY    43  30  61 SW8       29.89R
$$

TNZ008-025-027-028-033-062-065-066-231000-
NORTH MIDDLE TENNESSEE

CITY           SKY/WX    TMP DP  RH WIND       PRES   REMARKS
NASHVILLE      MOCLDY    47  27  45 SW14G25   29.83R
PORTLAND       CLOUDY    46  28  49 SW12G23   29.80R
CLARKSVILLE    CLOUDY    46  27  47 W16G25    29.80R
SMYRNA         FAIR      46  29  51 SW14      29.85R
COOKEVILLE     PTCLDY    45  30  57 SW10G22   29.82R
GALLATIN       CLOUDY    48  30  49 SW12G17   29.84R
CROSSVILLE     FAIR      44  28  53 SW14G24   29.81R
$$

TNZ061-075-076-078-094-096-097-231000-
SOUTH MIDDLE TENNESSEE

CITY           SKY/WX    TMP DP  RH WIND       PRES   REMARKS
FAYETTEVILLE   CLEAR     43  30  61 SW9       29.88S
TULLAHOMA      CLEAR     43  30  61 W13       29.86R
WINCHESTER     CLEAR     45  28  53 W13       29.88R
MCMINNVILLE    CLEAR     45  30  57 W15G28    29.85R
COLUMBIA       CLEAR     43  28  56 SW12      29.85R
SHELBYVILLE    PTCLDY    45  30  57 SW10G16   29.87R
$$

TNZ017-018-042-046-047-231000-
NORTHEAST TENNESSEE

CITY           SKY/WX    TMP DP  RH WIND       PRES   REMARKS
TRI CITIES     MOCLDY    56  48  74 SW18G24   29.75R
ELIZABETHTON   CLOUDY    57  50  77 W10G18    29.75R
$$

TNZ012-013-036-069-073-074-231000-
CENTRAL EAST TENNESSEE

CITY           SKY/WX    TMP DP  RH WIND       PRES   REMARKS
KNOXVILLE      MOCLDY    53  38  56 W17       29.79R
DOWNTOWN KNOXV MOCLDY    54  36  50 W14G23    29.79R
GATLINBURG     CLOUDY    57  46  67 W18G28    29.76R
JACKSBORO      CLEAR     50  34  53 VRB7G18   29.81R
$$

TNZ083-085-099-231000-
SOUTHEAST TENNESSEE

CITY           SKY/WX    TMP DP  RH WIND       PRES   REMARKS
CHATTANOOGA    FAIR      50  30  46 SW14G31   29.86R
DAYTON         SUNNY     48  34  57 SW5       29.84R
$$

SKY/WX REPORTED AS FAIR MEANS FEW OR NO CLOUDS BELOW
12 THOUSAND FEET.





USA.gov is the U.S. government's official web portal to all federal, state and local government web resources and services.